CAPE
0 0 1 0 0 0 0 0 0 0 0 0 0 0 0 0 0 0 0 0 0 0 0 0 0 0 0 0 0 0 0 0 0 0 0 0 0 0 0 0 0 0 0 0 0
0 0 0 0 0 0 0 0 0 0 0 0 0 0 0 0 0 0 0 0 0 0 0 0 0 0 0 0 0 0 0 0 0 0 0 0 0 0 0 0 0 0 0 0 0
0 0 0 0 0 0 0 0 0 0 0 0 0 0 0 0 0 0 0 0 0 0 0 0 0 0 0 0 0 0 0 0 0 0 0 0 0 0 0 0 0 0 0 0 0
0 0 0 0 0 0 0 0 0 0 0 0 0 0 0 0 0 0 0 0 0 0 0 0 0 0 0 0 0 0 0 0 0 0 0 0 0 0 0 0 0 0 0 0 0
0 0 0 0 0 0 0 0 0 0 0 0 0 0 0 0 0 0 0 0 0 0 0 0 0 0 0 0 0 0 0 0 0 0 0 0 0 0 0 0 0 0 0 0 0
1 0 0 0 0 0 0 0 0 0 0 0 0 0 0 0 0 0 0 0 0 0 0 0 0 0 0 0 0 0 0 0 0 0 0 0 0 0 0 0 0 0 0 0 0
0 0 0 0 0 0 0 0 0 0 0 0 0 0 0 0 0 0 0 0 0 0 0 0 0 0 0 0 0 0 0 0 0 0 0 0 0 0 0 0 0 0 0 0 0
0 0 0 0 0 0 0 0 0 0 0 0 0 0 0 0 0 0 0 0 0 0 0 0 0 0 0 0 0 0 0 0 0 0 0 0 0 0 0 0 0 0 0 0 0
0 0 0 0 0 0 0 0 0 0 0 0 0 0 0 0 0 0 0 0 0 0 0 0 0 0 0 0 0 0 0 0 0 0 0 0 0 0 0 0 0 0 0 0 0
0 0 0 0 0 0 0 0 0 0 0 0 0 0 0 0 0 0 0 0 0 0 0 0 0 0 0 0 0 0 0 0 0 0 0 0 0 0 0 0 0 0 0 0 0
0 0 0 0 0 0 0 0 0 0 0 0 0 0 0 0 0 0 0 0 0 0 0 0 0 0 0 0 0 0 0 0 0 0 0 0 0 0 0 0 0 0 0 0 0
0 0 0 0 0 0 0 0 0 0 0 0 0 0 0 0 0 0 0 0 0 0 0 0 0 0 0 0 0 0 0 0 0 0 0 0 0 0 0 0 0 0 0 0 0
0 0 0 0 0 0 0 0 0 0 0 0 0 0 0 0 0 0 0 0 0 0 0 0 0 0 0 0 0 0 0 0 0 0 0 0 0 0 0 0 0 0 0 0 0
5 5 0 1 0 0 0 0 11 0 0 0 0 0 0 0 0 0 0 0 0 0 0 0 0 0 0 0 0 0 0 0 0 0 0 0 0 0 0 0 0 0 0 0 0
16 17 2 0 0 0 0 1 8 1 0 0 0 0 0 0 0 0 0 0 0 0 0 0 0 0 0 0 0 0 0 0 0 0 0 0 0 0 0 0 0 0 0 0 0
20 6 2 0 0 11 4 15 3 0 0 0 0 0 0 0 0 0 0 0 0 0 0 0 0 0 0 0 0 0 0 0 0 0 0 0 0 0 0 0 0 0 0 0 0
34 4 1 0 0 30 31 7 1 0 0 0 0 0 0 0 0 0 0 0 0 0 0 0 0 0 0 0 0 0 0 0 0 0 0 0 0 0 0 0 0 0 0 0 0
8 5 1 1 5 28 21 2 0 0 0 0 0 0 0 0 0 0 0 0 0 0 0 0 0 0 0 0 0 0 0 0 0 0 0 0 0 0 0 0 0 0 0 0 0
0 12 3 0 15 36 18 3 0 0 0 0 0 14 0 0 0 0 0 0 0 0 0 0 0 0 0 0 0 0 0 0 0 0 0 0 0 0 0 0 0 0 0 0 0
0 0 17 0 8 40 15 1 0 0 0 0 0 6 4 0 0 0 0 0 0 0 0 0 0 0 0 0 0 0 0 0 0 0 0 0 0 0 0 0 0 0 0 0 0
9 0 1 12 13 24 4 0 0 0 0 0 0 0 0 0 0 0 0 0 0 0 0 0 0 0 3 0 0 0 0 3 16 0 0 0 0 0 2 0 0 0 0 0 0
5 1 4 44 2 0 5 0 0 0 0 0 0 2 0 0 0 3 2 7 1 0 0 0 0 0 0 0 0 0 0 0 2 0 2 0 0 0 0 0 0 0 0 0 0
2 4 0 25 0 0 0 0 0 0 0 0 0 0 2 1 0 0 14 0 0 1 8 1 0 0 0 2 4 0 0 6 7 4 0 0 0 0 5 19 4 8 0 0 0
1 1 0 1 2 0 0 0 4 2 8 0 0 0 0 0 0 0 0 0 0 0 0 15 14 1 0 0 3 1 2 11 25 6 0 1 0 2 21 2 0 0 1 0 0
0 0 0 0 0 0 0 0 2 5 6 1 0 4 0 0 0 0 0 0 0 0 1 2 18 10 0 0 0 2 23 2 6 18 1 0 6 1 11 1 0 0 1 0 0
11 9 14 0 0 4 1 0 0 1 6 0 0 3 9 21 1 0 0 0 0 0 0 27 6 1 0 0 0 23 10 0 0 0 0 0 0 0 3 4 11 9 8 0 0
1 5 14 13 3 2 1 0 0 2 8 1 0 2 0 0 0 1 0 0 0 0 0 1 0 0 0 0 0 0 0 0 0 0 0 0 0 0 0 0 4 6 0 0 0
CIN
-0 -0 -0 -0 -0 -0 -0 -0 -0 -0 -0 -0 -0 -0 -0 -0 -0 -0 -0 -0 -0 -0 -0 -0 -0 -0 -0 -0 -0 -0 -0 -0 -0 -0 -0 -0 -0 -0 -0 -0 -0 -0 -0 -0 -0
-0 -0 -0 -0 -0 -0 -0 -0 -0 -0 -0 -0 -0 -0 -0 -0 -0 -0 -0 -0 -0 -0 -0 -0 -0 -0 -0 -0 -0 -0 -0 -0 -0 -0 -0 -0 -0 -0 -0 -0 -0 -0 -0 -0 -0
-0 -0 -0 -0 -0 -0 -0 -0 -0 -0 -0 -0 -0 -0 -0 -0 -0 -0 -0 -0 -0 -0 -0 -0 -0 -0 -0 -0 -0 -0 -0 -0 -0 -0 -0 -0 -0 -0 -0 -0 -0 -0 -0 -0 -0
-0 -0 -0 -0 -0 -0 -0 -0 -0 -0 -0 -0 -0 -0 -0 -0 -0 -0 -0 -0 -0 -0 -0 -0 -0 -0 -0 -0 -0 -0 -0 -0 -0 -0 -0 -0 -0 -0 -0 -0 -0 -0 -0 -0 -0
-0 -0 -0 -0 -0 -0 -0 -0 -0 -0 -0 -0 -0 -0 -0 -0 -0 -0 -0 -0 -0 -0 -0 -0 -0 -0 -0 -0 -0 -0 -0 -0 -0 -0 -0 -0 -0 -0 -0 -0 -0 -0 -0 -0 -0
-0 -0 -0 -0 -0 -0 -0 -0 -0 -0 -0 -0 -0 -0 -0 -0 -0 -0 -0 -0 -0 -0 -0 -0 -0 -0 -0 -0 -0 -0 -0 -0 -0 -0 -0 -0 -0 -0 -0 -0 -0 -0 -0 -0 -0
-0 -0 -0 -0 -0 -0 -0 -0 -0 -0 -0 -0 -0 -0 -0 -0 -0 -0 -0 -0 -0 -0 -0 -0 -0 -0 -0 -0 -0 -0 -0 -0 -0 -0 -0 -0 -0 -0 -0 -0 -0 -0 -0 -0 -0
-0 -0 -0 -0 -0 -0 -0 -0 -0 -0 -0 -0 -0 -0 -0 -0 -0 -0 -0 -0 -0 -0 -0 -0 -0 -0 -0 -0 -0 -0 -0 -0 -0 -0 -0 -0 -0 -0 -0 -0 -0 -0 -0 -0 -0
-0 -0 -0 -0 -0 -0 -0 -0 -0 -0 -0 -0 -0 -0 -0 -0 -0 -0 -0 -0 -0 -0 -0 -0 -0 -0 -0 -0 -0 -0 -0 -0 -0 -0 -0 -0 -0 -0 -0 -0 -0 -0 -0 -0 -0
-0 -0 -0 -0 -0 -0 -0 -0 -0 -0 -0 -0 -0 -0 -0 -0 -0 -0 -0 -0 -0 -0 -0 -0 -0 -0 -0 -0 -0 -0 -0 -0 -0 -0 -0 -0 -0 -0 -0 -0 -0 -0 -0 -0 -0
-0 -0 -0 -0 -0 -0 -0 -0 -0 -0 -0 -0 -0 -0 -0 -0 -0 -0 -0 -0 -0 -0 -0 -0 -0 -0 -0 -0 -0 -0 -0 -0 -0 -0 -0 -0 -0 -0 -0 -0 -0 -0 -0 -0 -0
-0 -0 -0 -0 -0 -0 -0 -0 -0 -0 -0 -0 -0 -0 -0 -0 -0 -0 -0 -0 -0 -0 -0 -0 -0 -0 -0 -0 -0 -0 -0 -0 -0 -0 -0 -0 -0 -0 -0 -0 -0 -0 -0 -0 -0
-0 -0 -0 -0 -0 -0 -0 -0 -0 -0 -0 -0 -0 -0 -0 -0 -0 -0 -0 -0 -0 -0 -0 -0 -0 -0 -0 -0 -0 -0 -0 -0 -0 -0 -0 -0 -0 -0 -0 -0 -0 -0 -0 -0 -0
-2 -0 -0 -1 -0 -0 -0 -0 -0 -0 -0 -0 -0 -0 -0 -0 -0 -0 -0 -0 -0 -0 -0 -0 -0 -0 -0 -0 -0 -0 -0 -0 -0 -0 -0 -0 -0 -0 -0 -0 -0 -0 -0 -0 -0
-0 -0 -1 -0 -0 -0 -0 -1 -0 -0 -0 -0 -0 -0 -0 -0 -0 -0 -0 -0 -0 -0 -0 -0 -0 -0 -0 -0 -0 -0 -0 -0 -0 -0 -0 -0 -0 -0 -0 -0 -0 -0 -0 -0 -0
-1 -1 -3 -0 -0 -0 -0 -0 -7 -0 -0 -0 -0 -0 -0 -0 -0 -0 -0 -0 -0 -0 -0 -0 -0 -0 -0 -0 -0 -0 -0 -0 -0 -0 -0 -0 -0 -0 -0 -0 -0 -0 -0 -0 -0
-0 -2 -7 -0 -0 -2 -0 -2 -0 -0 -0 -0 -0 -0 -0 -0 -0 -0 -0 -0 -0 -0 -0 -0 -0 -0 -0 -0 -0 -0 -0 -0 -0 -0 -0 -0 -0 -0 -0 -0 -0 -0 -0 -0 -0
-7 -3 -0 -6 -2 -2 -2 -0 -0 -0 -0 -0 -0 -0 -0 -0 -0 -0 -0 -0 -0 -0 -0 -0 -0 -0 -0 -0 -0 -0 -0 -0 -0 -0 -0 -0 -0 -0 -0 -0 -0 -0 -0 -0 -0
-0 -1 -0 -13 -2 -3 -0 -1 -0 -0 -0 -0 -0 -4 -0 -0 -0 -0 -0 -0 -0 -0 -0 -0 -0 -0 -0 -0 -0 -0 -0 -0 -0 -0 -0 -0 -0 -0 -0 -0 -0 -0 -0 -0 -0
-0 -0 -0 -0 -2 -1 -0 -0 -0 -0 -0 -0 -0 -5 -3 -2 -0 -0 -0 -0 -0 -0 -0 -0 -0 -0 -0 -0 -0 -0 -0 -0 -0 -0 -0 -0 -0 -0 -0 -0 -0 -0 -0 -0 -0
-0 -0 -0 -8 -1 -0 -3 -0 -0 -0 -0 -0 -0 -0 -1 -2 -12 -0 -0 -0 -0 -0 -0 -0 -0 -0 -11 -0 -0 -0 -0 -1 -3 -0 -0 -0 -0 -15 -52 -0 -0 -0 -0 -0 -0
-0 -0 -0 -0 -0 -0 -0 -0 -0 -0 -0 -0 -0 -11 -0 -0 -0 -8 -2 -1 -2 -0 -0 -0 -0 -0 -0 -0 -0 -0 -0 -0 -18 -0 -4 -0 -0 -0 -0 -0 -0 -0 -0 -0 -0
-2 -2 -0 -0 -0 -0 -0 -0 -1 -0 -0 -0 -0 -0 -10 -4 -0 -0 -1 -0 -0 -27 -6 -1 -4 -0 -0 -2 -10 -0 -0 -1 -6 -17 -0 -0 -0 -0 -14 -6 -5 -0 -0 -0 -0
-2 -1 -0 -0 -0 -0 -0 -1 -1 -0 -6 -0 -0 -7 -0 -0 -0 -0 -0 -0 -0 -0 -0 -38 -3 -0 -0 -0 -12 -1 -0 -8 -4 -0 -0 -0 -0 -3 -2 -18 -7 -0 -0 -0 -0
-2 -0 -0 -0 -0 -0 -0 -0 -1 -3 -5 -8 -0 -9 -2 -0 -0 -0 -0 -0 -0 -0 -23 -22 -14 -8 -3 -0 -0 -34 -31 -14 -10 -18 -13 -0 -8 -1 -7 -33 -0 -0 -0 -0 -0
-0 -1 -5 -0 -0 -0 -0 -0 -2 -4 -4 -0 -0 -21 -3 -2 -30 -0 -0 -0 -0 -0 -0 -8 -34 -38 -0 -0 -0 -35 -67 -0 -0 -0 -0 -0 -0 -0 -11 -17 -23 -65 -5 -0 -0
-0 -1 -2 -0 -0 -0 -0 -0 -0 -1 -4 -2 -0 -15 -9 -0 -3 -2 -0 -0 -0 -0 -0 -3 -0 -0 -0 -0 -0 -0 -0 -0 -0 -0 -0 -0 -0 -0 -0 -0 -2 -31 -12 -0 -0
Wind_Speed
26 26 27 26 26 26 27 28 29 30 32 33 35 36 38 39 41 37 31 23 20 22 24 19 18 13 9 11 10 11 15 12 20 8 11 11 12 11 15 14 14 14 14 16 19
27 27 26 25 26 26 27 28 29 31 32 34 35 36 38 39 39 38 23 20 22 21 17 16 17 12 12 12 8 8 8 18 18 15 12 12 11 15 15 10 13 11 13 18 18
29 27 26 25 25 27 27 28 30 31 32 34 35 36 37 37 34 21 18 18 19 16 15 20 18 16 13 9 9 11 12 18 15 16 16 15 12 15 15 15 17 14 20 20 19
28 27 26 25 25 26 27 28 29 30 32 33 33 35 35 28 27 20 16 16 17 17 18 15 14 13 15 11 10 17 17 18 17 14 15 14 17 18 18 18 18 17 18 18 19
26 26 27 25 25 26 28 29 29 30 31 32 31 33 30 28 29 19 18 18 17 18 17 16 16 15 15 15 14 15 18 16 15 14 14 16 17 20 19 16 17 16 16 16 19
25 25 25 26 26 27 28 29 29 30 31 31 30 31 28 35 21 18 19 18 18 16 18 18 17 20 22 21 17 19 20 21 16 14 16 17 19 18 18 12 13 14 17 16 20
24 25 25 26 27 27 29 29 29 29 30 30 29 28 31 31 26 23 20 20 17 16 18 18 21 20 17 20 18 20 23 20 18 17 16 16 23 18 13 11 12 15 14 16 20
21 24 26 27 29 29 30 30 30 30 30 29 28 27 34 24 25 23 20 20 19 17 18 21 19 22 22 20 20 22 21 25 20 12 13 16 28 15 6 9 13 16 16 16 20
21 21 23 26 28 30 30 30 30 30 28 27 27 24 36 21 22 23 19 20 16 18 18 19 19 20 18 21 25 19 26 20 17 7 12 13 20 8 8 13 15 18 20 15 18
24 23 22 23 24 26 28 29 29 27 26 25 28 31 28 26 21 18 18 15 17 17 19 19 19 21 20 19 23 21 21 22 23 10 13 16 18 18 18 15 16 15 16 16 17
27 27 26 24 22 23 24 28 30 30 29 28 24 25 24 20 20 22 17 15 17 18 22 18 22 24 19 18 21 24 30 27 19 12 14 18 20 24 27 23 16 16 14 15 17
25 25 26 24 23 22 24 27 27 30 39 31 35 37 33 25 30 22 13 17 16 22 18 22 25 19 20 21 19 20 28 28 26 26 29 28 29 32 29 26 14 14 14 16 16
28 26 24 23 23 26 29 27 27 28 39 45 38 36 30 31 31 27 14 16 18 22 19 21 23 17 21 20 24 24 25 27 30 27 22 26 34 34 28 19 12 15 15 14 16
32 29 27 23 26 30 30 25 21 21 38 41 30 34 31 27 37 27 17 15 22 22 19 22 19 24 20 25 22 27 23 27 28 28 33 27 40 28 17 14 15 13 12 12 13
27 30 24 22 29 29 29 23 24 22 43 27 23 17 21 25 20 24 23 21 25 22 22 25 22 23 27 22 20 27 27 24 23 27 33 30 34 31 25 21 17 13 10 10 11
25 24 21 26 33 27 18 16 20 32 42 30 22 26 23 24 29 28 21 23 25 31 29 29 23 24 24 21 25 25 21 23 25 28 37 30 29 34 28 23 14 11 7 9 13
27 23 22 20 31 17 11 20 36 41 28 34 31 28 29 28 31 30 25 29 31 32 37 32 30 26 24 24 21 18 20 28 31 30 36 27 28 29 20 9 8 7 8 10 12
29 22 23 24 19 14 15 31 50 46 42 32 29 30 36 29 33 30 29 33 33 33 33 36 39 28 22 25 23 24 22 28 34 33 35 27 28 27 18 11 5 4 7 10 11
29 23 26 25 19 16 25 48 49 46 43 44 39 39 40 35 32 32 36 37 34 32 35 32 40 24 23 22 21 23 30 26 36 36 36 30 25 17 14 13 11 10 8 9 11
29 31 30 22 20 23 37 49 49 49 43 37 46 39 44 36 35 34 33 38 36 31 29 32 40 27 21 20 25 28 19 27 28 35 38 35 34 35 18 16 14 12 10 9 12
29 33 28 22 23 32 49 47 48 48 40 41 44 48 43 40 38 37 36 37 30 29 26 29 30 24 19 27 25 26 29 24 25 30 36 40 33 23 17 15 15 14 12 11 12
26 39 28 28 37 37 47 42 40 40 37 33 33 40 44 43 38 40 40 32 23 21 30 26 26 31 29 21 25 22 26 26 32 34 32 38 41 16 15 15 16 16 13 12 12
30 35 34 35 44 39 41 43 37 38 39 34 30 31 29 36 42 37 30 20 20 20 24 22 29 33 30 25 25 28 29 27 29 32 39 41 41 24 21 15 15 17 13 11 9
29 37 37 37 46 41 38 39 35 29 33 25 30 30 32 33 31 26 22 16 17 16 16 17 24 32 36 32 25 28 28 30 33 38 40 38 40 31 23 21 22 23 18 10 12
25 37 39 40 44 42 42 34 34 32 27 23 26 30 30 34 32 29 14 19 19 17 18 19 31 28 29 30 31 30 33 38 39 38 35 40 37 35 33 23 23 22 22 14 14
29 32 35 47 36 45 44 45 41 35 27 25 28 23 26 30 28 35 35 31 30 26 25 23 33 33 39 37 38 39 39 40 37 34 37 43 41 32 30 30 25 26 17 17 16
27 35 42 41 40 42 44 47 38 29 28 21 20 30 29 28 27 28 32 34 37 36 35 33 34 38 50 44 46 50 43 38 36 35 36 42 37 37 36 34 34 16 23 18 14
Wind_Direction
289 293 295 298 301 304 308 311 314 315 316 317 317 317 317 316 311 313 310 317 323 325 325 327 328 336 340 332 339 342 330 328 329 340 2 7 2 13 351 347 354 343 344 347 336
286 290 293 295 298 302 305 308 311 312 314 315 315 316 316 316 312 305 319 323 320 321 326 329 326 334 324 329 337 321 323 330 339 351 1 0 350 352 347 1 347 355 0 344 339
283 286 289 291 295 299 304 307 310 311 312 314 314 315 314 316 313 321 336 336 329 325 323 319 317 320 317 310 312 315 297 334 335 329 335 341 342 335 336 332 332 333 326 331 332
282 284 286 289 293 297 301 306 309 310 312 313 313 313 313 318 306 327 339 339 335 331 322 321 317 314 311 301 303 304 307 315 326 335 321 323 323 318 321 320 332 335 331 330 336
278 281 284 287 292 295 299 303 306 308 311 313 314 315 316 303 299 321 318 318 320 322 320 315 311 310 303 304 301 302 299 315 316 323 322 319 313 311 311 320 326 333 335 336 339
275 280 282 286 290 293 297 300 304 305 308 311 313 312 306 295 312 318 313 309 307 313 310 308 307 312 302 300 297 312 307 304 312 313 312 310 308 308 309 314 325 328 329 338 339
276 280 282 285 290 293 295 299 301 303 305 308 310 311 299 291 300 307 311 304 304 304 302 304 303 303 314 303 296 302 300 301 297 299 306 315 304 295 299 315 320 324 330 336 338
286 287 287 288 289 292 293 296 299 301 302 305 307 307 294 300 303 294 295 298 299 301 300 299 305 296 292 302 307 299 297 297 306 276 305 312 305 319 310 315 314 322 329 333 336
290 291 294 292 290 290 292 294 296 297 298 301 303 299 294 308 295 296 291 289 293 296 298 300 300 290 296 288 293 288 295 291 299 284 307 300 311 337 312 312 309 317 319 331 336
281 286 292 295 294 294 295 294 297 297 296 293 291 293 290 291 303 304 299 286 286 293 291 290 292 286 278 278 279 288 285 293 294 280 293 298 302 301 309 311 308 324 325 329 330
281 284 287 290 290 295 297 295 292 289 279 278 287 285 299 295 303 297 296 286 282 282 278 282 276 271 272 269 278 287 295 295 303 305 294 295 298 302 302 300 297 314 313 324 327
278 282 285 287 288 289 289 289 293 295 285 280 277 276 280 296 291 288 284 279 269 273 273 275 270 273 276 277 273 278 284 287 292 294 295 298 300 300 298 295 292 306 311 318 324
275 278 277 283 286 284 281 285 293 299 285 280 273 271 272 272 277 283 267 264 269 270 265 263 288 272 271 271 281 282 285 288 290 295 301 301 297 298 294 288 298 306 317 322 322
273 273 272 276 284 277 276 279 293 305 287 282 280 277 258 264 274 263 259 261 276 270 266 266 264 287 282 272 279 282 286 289 288 292 290 299 296 303 311 282 284 292 304 315 323
272 268 269 271 280 274 281 271 282 295 279 289 271 289 277 247 289 272 245 252 268 266 268 269 271 270 272 272 278 283 294 293 293 291 295 292 294 296 291 282 277 281 296 317 327
272 269 266 272 276 280 286 274 272 278 271 281 279 276 271 254 264 285 245 253 269 271 268 271 277 277 278 271 278 286 289 292 292 293 286 290 291 298 297 282 265 271 289 319 328
274 261 257 267 270 281 274 268 264 266 280 278 273 270 265 265 267 267 263 246 258 262 262 269 265 275 280 273 273 269 282 288 286 282 287 296 290 288 313 318 274 256 293 316 326
288 259 253 262 269 263 250 259 261 266 264 284 273 267 264 266 266 256 262 257 254 263 278 263 265 254 265 262 265 263 262 279 284 286 292 299 289 296 304 319 342 291 294 316 321
281 272 261 254 256 254 253 253 260 267 273 272 269 264 265 264 268 257 258 263 259 250 262 269 265 272 254 255 252 268 258 276 285 288 291 291 295 314 308 303 302 298 301 308 318
282 274 263 241 243 253 253 256 260 263 275 282 262 264 264 262 257 257 262 269 263 256 248 270 279 260 249 258 256 267 273 273 277 283 284 286 288 293 276 284 290 292 293 305 315
281 271 281 240 239 251 255 258 261 266 274 276 272 265 266 267 259 261 264 271 263 258 245 256 274 268 247 259 259 263 263 274 278 277 288 290 296 309 293 282 282 286 291 299 306
281 264 271 248 243 252 249 255 261 261 269 286 279 274 270 261 266 261 266 270 275 257 247 242 270 264 255 263 266 267 262 265 272 280 283 286 284 308 309 294 290 288 287 293 302
279 269 259 254 249 253 248 256 262 260 263 266 274 274 280 270 267 265 270 282 287 275 259 242 263 264 262 261 263 263 270 271 269 280 279 280 284 297 299 299 299 296 288 281 292
284 269 258 259 252 249 246 249 255 255 259 264 271 278 274 271 275 276 276 274 284 291 290 275 262 260 262 265 274 273 274 278 279 275 277 276 285 286 292 295 302 319 325 283 283
281 269 255 251 248 247 243 250 248 251 250 266 271 267 267 266 266 267 273 286 278 282 287 280 266 267 269 274 278 279 280 281 279 280 274 282 285 287 290 294 290 297 292 280 281
277 267 253 248 262 243 241 244 247 254 245 249 259 268 270 264 267 269 276 282 276 275 275 283 272 277 274 274 278 280 279 277 278 275 281 282 282 291 293 296 292 291 282 279 280
276 268 258 252 253 253 240 241 249 251 251 243 245 255 266 270 273 275 277 276 275 275 275 278 277 275 272 275 280 274 268 273 275 275 280 281 287 291 293 295 297 280 289 275 274